[[{"header":{"parameterUnit":"m.s-1","parameterCategory":1,"la1":30.2991,"la2":30.254,"lo1":-89.0895,"lo2":-89.0444,"dy":0.0017,"dx":0.0017,"nx":28,"ny":28,"refTime":"2025-04-07T03:00:00:Z","depth":0,"parameterNumber":2,"parameterNumberName":"U-component_of_WINDS"},"data":[0,0,0,0,0,0,0,0,0,0,0,0,0,0,0,0,0,0,0,0,0,0,0,0,0,0,0,0,0,0,0,0,0,0,0,0,0,0,0,0,0,0,0,0,0,0,0,0,0,0,0,0,0,0,0,0,0,0,4.9216,4.9216,0,4.9236,4.9237,4.9237,4.9173,4.9171,4.9169,4.9167,4.9186,4.9188,4.919,0,0,0,0,0,0,0,0,0,0,0,0,0,4.9119,4.9121,4.9216,4.9216,4.9216,4.9236,4.9237,4.9237,4.9174,4.9171,4.9169,4.9167,4.9185,4.9188,4.919,0,0,0,0,0,0,0,0,0,0,0,0,0,4.9153,4.9122,4.9216,4.9187,4.9185,4.9236,4.9237,4.9237,4.9174,4.9171,4.9168,4.9166,4.9184,4.9187,4.9191,4.927,0,0,4.9201,4.9203,0,0,0,0,0,0,0,0,4.9151,4.9156,4.9191,4.9189,4.9187,4.9199,4.9209,4.9248,4.9175,4.9178,4.9167,4.9164,4.9192,4.9195,4.9205,4.9271,4.9272,4.9202,4.9204,4.9205,4.9206,0,0,0,0,0,0,0,4.9149,4.9155,4.9224,4.9192,4.9189,4.9173,4.9174,4.9216,4.9201,4.9177,4.9173,4.9176,4.9191,4.9202,4.9205,4.9272,4.9202,4.9205,4.9207,4.9208,4.9405,4.9408,0,0,0,0,0,0,4.915,4.9153,4.9223,4.9224,4.9161,4.9177,4.9178,4.9198,4.92,4.9198,4.9179,4.9173,4.9198,4.9201,4.9205,4.9299,4.9205,4.9208,4.921,4.9402,4.9405,4.9409,0,0,0,0,0,0,4.9149,4.9157,4.9222,4.9188,4.9195,4.9181,4.9204,4.92,4.9211,4.9202,4.9198,4.9193,4.9195,4.9201,4.9255,4.9299,4.921,4.9213,4.9398,4.9403,4.9407,4.9486,0,0,0,0,0,0,4.9146,4.9157,4.9187,4.9189,4.9197,4.9272,4.9207,4.9202,4.9218,4.9211,4.9214,4.9212,4.9194,4.925,4.9258,4.9302,4.9216,4.9394,4.94,4.9406,4.948,4.9493,4.9505,0,0,0,0,0,4.9143,4.9208,4.9189,4.9198,4.9234,4.9275,4.9279,4.9257,4.9221,4.9252,4.9246,4.9212,4.9293,4.9256,4.9265,4.931,4.9391,4.9398,4.9405,4.9474,4.949,4.9504,0,0,0,0,0,0,4.9209,4.9207,4.9186,4.9254,4.9265,4.9264,4.9301,4.9275,4.9296,4.9288,4.9259,4.9261,4.932,4.932,4.928,4.9387,4.9336,4.9345,4.9385,4.94,4.9413,4.9411,4.9219,0,0,0,0,0,4.9232,4.9266,4.9262,4.9322,4.9328,4.9314,4.9331,4.9313,4.9323,4.9327,4.9325,4.9335,4.9363,4.9382,4.9407,4.948,4.948,4.9515,4.9528,4.9538,4.9546,4.9585,4.9601,4.9432,4.9432,4.9432,0,0,4.9279,4.9282,4.9305,4.9335,4.9342,4.9377,4.9318,4.9357,4.9383,4.9333,4.9384,4.9383,4.9393,4.9457,4.9485,4.9459,4.9593,4.9547,4.9555,4.9558,4.9594,4.961,4.9625,4.9437,4.9436,4.9435,0,0,4.9382,4.9388,4.9439,4.9448,4.9459,4.945,4.9462,4.9465,4.9463,4.9515,4.9478,4.9508,4.9556,4.9565,4.9576,4.9685,4.9655,4.9694,4.9759,4.9798,4.9811,4.9823,4.9862,4.9876,4.9702,4.9703,4.9703,0,4.9439,4.9491,4.9468,4.9511,4.9525,4.9484,4.9535,4.9544,4.9563,4.9573,4.9544,4.9605,4.9608,4.9675,4.9702,4.9712,4.9725,4.9693,4.9811,4.9823,4.9833,4.987,4.9885,4.9707,4.9707,4.9706,4.9706,0,4.956,4.9597,4.9637,4.9658,4.9677,4.9724,4.9708,4.973,4.9711,4.9705,4.9758,4.9761,4.9787,4.9801,4.9783,4.9865,4.9849,4.9816,4.9763,4.9854,4.9889,4.9903,4.9714,4.9712,4.9711,4.971,0,0,4.9704,4.9714,4.9729,4.9739,4.9749,4.9777,4.9822,4.9848,4.9868,4.9883,4.992,4.9963,4.9933,4.9945,4.9928,4.9962,5.0049,4.9925,4.9924,4.9948,5.0141,5.0165,5.0182,5.003,5.0032,5.0034,5.014,0,4.9806,4.9885,4.9867,4.9944,4.9978,4.994,4.9979,4.999,4.9986,5.0013,5.0008,5.0039,4.9997,5.0004,5.0037,5.0032,5.0087,5.0024,5.0063,5.0065,5.0062,5.02,5.0226,5.0325,5.0153,5.0155,5.0157,0,4.9936,4.9958,5.0039,5.0046,5.0059,5.0095,5.0118,5.0145,5.0157,5.0151,5.0167,5.0143,5.0187,5.0135,5.0196,5.0153,5.0168,5.0169,5.0172,5.0174,5.0116,5.0206,5.0356,5.0371,5.0178,5.0176,5.0175,0,5.0033,5.0083,5.0138,5.0147,5.0157,5.0183,5.0188,5.0196,5.0214,5.0234,5.0245,5.027,5.0283,5.0303,5.0286,5.025,5.035,5.0296,5.0346,5.0347,5.0368,5.0367,5.0523,5.0379,5.0379,5.0379,5.0378,0,5.0149,5.02,5.0182,5.0216,5.0273,5.0252,5.0308,5.0308,5.0317,5.035,5.0318,5.0349,5.0326,5.0355,5.0342,5.0395,5.0401,5.0398,5.0394,5.04,5.0401,5.0409,5.0402,5.0382,5.0382,5.0381,5.038,0,5.0267,5.0257,5.0315,5.032,5.0322,5.0364,5.0367,5.0399,5.0393,5.0435,5.0444,5.0434,5.0467,5.0453,5.0488,5.0479,5.0547,5.0534,5.0543,5.054,5.0591,5.0586,5.0757,5.0779,5.0621,5.0623,5.0624,0,5.0342,5.038,5.039,5.0411,5.0419,5.0452,5.047,5.0451,5.0471,5.0489,5.0518,5.0549,5.0572,5.0627,5.0623,5.0649,5.0636,5.0695,5.064,5.0646,5.0637,5.0635,5.0639,5.0705,5.0707,5.0708,5.071,0,5.0475,5.0469,5.0497,5.0524,5.0548,5.0568,5.0585,5.0603,5.0585,5.0609,5.0644,5.0662,5.0699,5.073,5.0753,5.0757,5.0731,5.0727,5.074,5.0747,5.0751,5.075,5.0573,5.0723,5.0722,5.0721,5.072,5.0719,5.0573,5.0607,5.062,5.0652,5.0664,5.0681,5.0711,5.071,5.0739,5.0768,5.0755,5.0795,5.0806,5.0836,5.0844,5.0874,5.0851,5.087,5.0875,5.0879,5.0886,5.0747,5.0878,5.0878,5.0878,5.0877,5.0877,0,5.0705,5.0712,5.0743,5.0769,5.0795,5.077,5.0788,5.0811,5.0847,5.086,5.0885,5.0925,5.0955,5.0954,5.0982,5.1007,5.0995,5.1015,5.1012,5.1014,5.0905,5.0891,5.1024,5.1024,5.1024,5.1024,5.1024,5.1024,5.0777,5.0832,5.0828,5.0889,5.0895,5.0935,5.0948,5.0963,5.0974,5.1021,5.1047,5.1046,5.1054,5.1082,5.1109,5.1108,5.1119,5.1144,5.1138,5.1036,5.1021,5.1008,5.0994,5.1146,5.1146,5.1244,5.1245,5.1246]},{"header":{"parameterUnit":"m.s-1","parameterCategory":1,"la1":30.2991,"la2":30.254,"lo1":-89.0895,"lo2":-89.0444,"dy":0.0017,"dx":0.0017,"nx":28,"ny":28,"refTime":"2025-04-07T03:00:00:Z","depth":0,"parameterNumber":3,"parameterNumberName":"V-component_of_WINDS"},"data":[0,0,0,0,0,0,0,0,0,0,0,0,0,0,0,0,0,0,0,0,0,0,0,0,0,0,0,0,0,0,0,0,0,0,0,0,0,0,0,0,0,0,0,0,0,0,0,0,0,0,0,0,0,0,0,0,0,0,-4.3179,-4.3179,0,-4.3234,-4.3234,-4.3235,-4.321,-4.3209,-4.3207,-4.3206,-4.326,-4.3263,-4.3265,0,0,0,0,0,0,0,0,0,0,0,0,0,-4.3052,-4.3054,-4.3179,-4.318,-4.318,-4.3233,-4.3234,-4.3235,-4.321,-4.3209,-4.3207,-4.3206,-4.3259,-4.3262,-4.3265,0,0,0,0,0,0,0,0,0,0,0,0,0,-4.3107,-4.3055,-4.3179,-4.3174,-4.3175,-4.3233,-4.3234,-4.3235,-4.3211,-4.3209,-4.3207,-4.3205,-4.3258,-4.3262,-4.3266,-4.3331,0,0,-4.3278,-4.328,0,0,0,0,0,0,0,0,-4.3104,-4.3111,-4.3174,-4.3175,-4.3175,-4.3213,-4.3209,-4.3267,-4.3211,-4.3197,-4.3206,-4.3204,-4.3246,-4.3251,-4.3265,-4.3334,-4.3336,-4.3279,-4.3281,-4.3283,-4.3284,0,0,0,0,0,0,0,-4.31,-4.3109,-4.32,-4.3175,-4.3176,-4.3169,-4.3175,-4.322,-4.3232,-4.3198,-4.3196,-4.3203,-4.3246,-4.3262,-4.3266,-4.3337,-4.3278,-4.3282,-4.3285,-4.3286,-4.3462,-4.3464,0,0,0,0,0,0,-4.3096,-4.3106,-4.3199,-4.3202,-4.3134,-4.3173,-4.3179,-4.3203,-4.3231,-4.3234,-4.3205,-4.3202,-4.3256,-4.3262,-4.3268,-4.3347,-4.3283,-4.3287,-4.3289,-4.346,-4.3463,-4.3465,0,0,0,0,0,0,-4.3094,-4.3105,-4.3196,-4.3154,-4.3165,-4.3178,-4.3204,-4.3205,-4.3221,-4.3237,-4.3239,-4.3219,-4.3254,-4.3263,-4.3316,-4.3348,-4.3288,-4.3292,-4.3457,-4.3461,-4.3464,-4.3504,0,0,0,0,0,0,-4.309,-4.3104,-4.3129,-4.3154,-4.3167,-4.3244,-4.3206,-4.3208,-4.3228,-4.3225,-4.3251,-4.3253,-4.3253,-4.331,-4.332,-4.3353,-4.3295,-4.3454,-4.3459,-4.3463,-4.35,-4.3509,-4.3516,0,0,0,0,0,-4.3086,-4.3138,-4.3131,-4.3142,-4.3199,-4.3246,-4.3253,-4.3253,-4.3231,-4.3256,-4.3267,-4.3252,-4.3343,-4.3316,-4.3327,-4.3361,-4.3452,-4.3458,-4.3463,-4.3497,-4.3507,-4.3516,0,0,0,0,0,0,-4.3115,-4.3141,-4.3133,-4.3195,-4.3219,-4.3242,-4.3273,-4.3264,-4.3294,-4.3289,-4.3288,-4.3294,-4.3349,-4.3361,-4.3329,-4.3426,-4.3394,-4.3402,-4.3417,-4.3427,-4.3434,-4.343,-4.3298,0,0,0,0,0,-4.3129,-4.3165,-4.3186,-4.3239,-4.3251,-4.326,-4.3281,-4.3279,-4.3303,-4.3312,-4.3326,-4.335,-4.3384,-4.3406,-4.3438,-4.3502,-4.3507,-4.3531,-4.3539,-4.3546,-4.3552,-4.3587,-4.3598,-4.3482,-4.3482,-4.3482,0,0,-4.3158,-4.3176,-4.3199,-4.3245,-4.3263,-4.33,-4.3269,-4.3309,-4.3337,-4.3318,-4.337,-4.3381,-4.3407,-4.3466,-4.3493,-4.3477,-4.3585,-4.3552,-4.3557,-4.356,-4.3593,-4.3604,-4.3614,-4.3485,-4.3485,-4.3484,0,0,-4.3229,-4.3247,-4.3293,-4.3312,-4.334,-4.3346,-4.3357,-4.3382,-4.3389,-4.3441,-4.3428,-4.3461,-4.3519,-4.3538,-4.3556,-4.3636,-4.3623,-4.3646,-4.3687,-4.3721,-4.373,-4.3738,-4.3766,-4.3777,-4.3652,-4.3653,-4.3653,0,-4.3261,-4.3317,-4.3318,-4.336,-4.338,-4.3366,-4.3413,-4.3431,-4.3468,-4.3482,-4.3464,-4.3538,-4.3554,-4.3618,-4.3638,-4.3652,-4.3665,-4.3643,-4.3729,-4.3737,-4.3745,-4.3771,-4.3782,-4.3655,-4.3655,-4.3655,-4.3654,0,-4.3355,-4.3394,-4.3428,-4.3465,-4.3489,-4.3533,-4.354,-4.3565,-4.3561,-4.3569,-4.3623,-4.3642,-4.3678,-4.3693,-4.369,-4.3757,-4.3746,-4.3729,-4.3697,-4.3758,-4.3783,-4.3794,-4.3659,-4.3658,-4.3657,-4.3656,0,0,-4.3445,-4.3483,-4.3495,-4.3512,-4.3542,-4.3572,-4.3616,-4.3652,-4.3673,-4.3699,-4.3735,-4.3786,-4.3771,-4.379,-4.3789,-4.3819,-4.3881,-4.3798,-4.3799,-4.3813,-4.3956,-4.3968,-4.398,-4.3874,-4.3876,-4.3877,-4.3954,0,-4.3518,-4.3595,-4.3597,-4.3668,-4.3704,-4.3692,-4.373,-4.3752,-4.3761,-4.3793,-4.3803,-4.3838,-4.3816,-4.3827,-4.3857,-4.3868,-4.391,-4.3862,-4.3907,-4.3908,-4.39,-4.3993,-4.4006,-4.4077,-4.3963,-4.3965,-4.3966,0,-4.3613,-4.3644,-4.3718,-4.3744,-4.3759,-4.3793,-4.3827,-4.3858,-4.3883,-4.3887,-4.391,-4.3905,-4.3949,-4.3916,-4.3977,-4.3945,-4.3963,-4.3971,-4.3974,-4.3977,-4.394,-4.3999,-4.41,-4.411,-4.3982,-4.3981,-4.398,0,-4.3671,-4.3731,-4.3783,-4.3798,-4.3829,-4.3854,-4.3868,-4.3891,-4.3913,-4.3943,-4.3957,-4.399,-4.4009,-4.4035,-4.4039,-4.4015,-4.41,-4.4067,-4.4104,-4.4104,-4.4121,-4.412,-4.4226,-4.4135,-4.4134,-4.4134,-4.4134,0,-4.3752,-4.3798,-4.3809,-4.3841,-4.3892,-4.3895,-4.3945,-4.3957,-4.3978,-4.4012,-4.4004,-4.4036,-4.4039,-4.4072,-4.4075,-4.4125,-4.4133,-4.4137,-4.4138,-4.4138,-4.4137,-4.4149,-4.4144,-4.4137,-4.4136,-4.4136,-4.4135,0,-4.3825,-4.3835,-4.3891,-4.3917,-4.3924,-4.3961,-4.3983,-4.4013,-4.4022,-4.4065,-4.4075,-4.4088,-4.4126,-4.4133,-4.4177,-4.418,-4.4239,-4.4234,-4.423,-4.423,-4.4266,-4.4262,-4.4383,-4.4399,-4.4297,-4.4298,-4.4299,0,-4.3876,-4.3911,-4.3941,-4.3964,-4.398,-4.4016,-4.4039,-4.4042,-4.4066,-4.4098,-4.4125,-4.4163,-4.4193,-4.4254,-4.4267,-4.4302,-4.4297,-4.4337,-4.4302,-4.4302,-4.4297,-4.4295,-4.4298,-4.4344,-4.4345,-4.4346,-4.4346,0,-4.3965,-4.3969,-4.4002,-4.4037,-4.4065,-4.4092,-4.4119,-4.4137,-4.4145,-4.4172,-4.4211,-4.4235,-4.4281,-4.4318,-4.4353,-4.4367,-4.4358,-4.4358,-4.4368,-4.4368,-4.4364,-4.4366,-4.4248,-4.4355,-4.4354,-4.4353,-4.4353,-4.4352,-4.4029,-4.4059,-4.4086,-4.4123,-4.4144,-4.4169,-4.4199,-4.4211,-4.4245,-4.4283,-4.4284,-4.4327,-4.4352,-4.4397,-4.4413,-4.4447,-4.4434,-4.4449,-4.4452,-4.4456,-4.4459,-4.436,-4.4453,-4.4453,-4.4453,-4.4452,-4.4452,0,-4.4117,-4.4134,-4.4168,-4.4206,-4.4235,-4.4226,-4.4255,-4.428,-4.4318,-4.4343,-4.4373,-4.4418,-4.4455,-4.4471,-4.4507,-4.453,-4.4527,-4.454,-4.4537,-4.4541,-4.4469,-4.4456,-4.4542,-4.4542,-4.4542,-4.4542,-4.4542,-4.4542,-4.4166,-4.4218,-4.4225,-4.4286,-4.4302,-4.4345,-4.4363,-4.4386,-4.4405,-4.4457,-4.4487,-4.4498,-4.4519,-4.4557,-4.459,-4.4593,-4.4607,-4.4621,-4.4623,-4.4555,-4.4546,-4.4537,-4.4525,-4.4624,-4.4624,-4.4692,-4.4693,-4.4693]}]]